This is the latest recevied weather packets stored in our database for station/object DO1BDB-12. If no packets are shown the sender has not sent any weather packets the latest 10 day(s).
| Time | Temp. | Humidity | Pressure | Rain* | Wind** | Luminosity | Snow |
|---|---|---|---|---|---|---|---|
| 1787722549 | 21.11° C | 59% | 102.2 hPa | - | - | - | - |
| 1787722483 | 19.44° C | 60% | 102.2 hPa | - | - | - | - |
| 1787722418 | 21.67° C | 57% | 102.2 hPa | - | - | - | - |
| 1787722352 | 21.11° C | 58% | 102.2 hPa | - | - | - | - |
| 1787722286 | 20.56° C | 62% | 102.2 hPa | - | - | - | - |
| 1787722220 | 21.11° C | 58% | 102.2 hPa | - | - | - | - |
| 1787722154 | 20° C | 65% | 102.2 hPa | - | - | - | - |
| 1787722088 | 19.44° C | 63% | 102.2 hPa | - | - | - | - |
| 1787722023 | 20.56° C | 61% | 102.2 hPa | - | - | - | - |
| 1787721957 | 19.44° C | 62% | 102.2 hPa | - | - | - | - |
| 1787721891 | 20° C | 62% | 102.2 hPa | - | - | - | - |
| 1787721825 | 19.44° C | 65% | 102.2 hPa | - | - | - | - |
| 1787721763 | 18.33° C | 71% | 102.2 hPa | - | - | - | - |
| 1787721693 | 16.67° C | 82% | 102.2 hPa | - | - | - | - |
| 1787721628 | 13.89° C | 89% | 102.2 hPa | - | - | - | - |
| 1787721562 | 13.89° C | 92% | 102.2 hPa | - | - | - | - |
| 1787721496 | 13.33° C | 92% | 102.2 hPa | - | - | - | - |
| 1787721430 | 13.33° C | 93% | 102.2 hPa | - | - | - | - |
| 1787721364 | 13.33° C | 93% | 102.2 hPa | - | - | - | - |
| 1787721299 | 12.78° C | 92% | 102.2 hPa | - | - | - | - |
| 1787721232 | 12.78° C | 92% | 102.2 hPa | - | - | - | - |
| 1787721167 | 12.78° C | 93% | 102.2 hPa | - | - | - | - |
| 1787721101 | 12.78° C | 93% | 102.2 hPa | - | - | - | - |
| 1787721035 | 12.22° C | 93% | 102.2 hPa | - | - | - | - |
| 1787720969 | 12.22° C | 92% | 102.2 hPa | - | - | - | - |
* Rain since midnight (hover to see other rain measurements)
** Current wind speed in m/s (hover to see current wind gust speed)